Time,TemperatureF,DewpointF,PressureIn,WindDirection,WindDirectionDegrees,WindSpeedMPH,WindSpeedGustMPH,Humidity,HourlyPrecipIn,Conditions,Clouds,dailyrainin,SoftwareType,DateUTC
2015-07-01 00:00:00,78.1,53.1,30.15,ESE,113,0.0,0.4,42,0.00,,,0.00,WUHU216HW,2015-07-01 07:00:00,
2015-07-01 00:05:00,78.1,53.1,30.15,ESE,113,0.0,0.2,42,0.00,,,0.00,WUHU216HW,2015-07-01 07:05:00,
2015-07-01 00:10:00,77.8,54.0,30.15,ESE,113,0.0,0.0,44,0.00,,,0.00,WUHU216HW,2015-07-01 07:10:00,
2015-07-01 00:15:00,76.9,53.8,30.15,ESE,113,1.1,1.1,45,0.00,,,0.00,WUHU216HW,2015-07-01 07:15:00,
2015-07-01 00:19:00,76.7,53.6,30.15,ESE,113,0.0,1.1,45,0.00,,,0.00,WUHU216HW,2015-07-01 07:19:00,
2015-07-01 00:25:00,76.1,53.2,30.15,ESE,113,0.0,0.2,45,0.00,,,0.00,WUHU216HW,2015-07-01 07:25:00,
2015-07-01 00:30:00,76.0,53.0,30.15,ESE,113,0.0,0.0,45,0.00,,,0.00,WUHU216HW,2015-07-01 07:30:00,
2015-07-01 00:35:00,76.0,53.0,30.15,ESE,113,0.0,0.4,45,0.00,,,0.00,WUHU216HW,2015-07-01 07:35:00,
2015-07-01 00:39:00,75.8,53.5,30.14,SW,225,0.0,1.1,46,0.00,,,0.00,WUHU216HW,2015-07-01 07:39:00,
2015-07-01 00:44:00,75.6,52.1,30.14,SW,225,0.7,1.1,44,0.00,,,0.00,WUHU216HW,2015-07-01 07:44:00,
2015-07-01 00:49:00,76.0,52.4,30.15,SW,225,0.0,0.7,44,0.00,,,0.00,WUHU216HW,2015-07-01 07:49:00,
2015-07-01 00:54:00,75.6,52.8,30.15,SW,225,0.0,0.4,45,0.00,,,0.00,WUHU216HW,2015-07-01 07:54:00,
2015-07-01 00:59:00,75.4,52.6,30.15,SW,225,0.0,0.0,45,0.00,,,0.00,WUHU216HW,2015-07-01 07:59:00,
2015-07-01 01:05:00,75.4,52.6,30.14,SW,225,0.0,0.0,45,0.00,,,0.00,WUHU216HW,2015-07-01 08:05:00,
2015-07-01 01:10:00,75.2,52.4,30.14,SW,225,0.0,0.0,45,0.00,,,0.00,WUHU216HW,2015-07-01 08:10:00,
2015-07-01 01:15:00,75.1,52.2,30.14,SW,225,0.0,0.0,45,0.00,,,0.00,WUHU216HW,2015-07-01 08:15:00,
2015-07-01 01:19:00,75.1,52.2,30.14,SW,225,0.0,0.0,45,0.00,,,0.00,WUHU216HW,2015-07-01 08:19:00,
2015-07-01 01:25:00,75.1,52.2,30.14,SW,225,0.0,0.0,45,0.00,,,0.00,WUHU216HW,2015-07-01 08:25:00,
2015-07-01 01:47:00,74.2,51.4,30.14,SE,135,0.0,0.0,45,0.00,,,0.00,WUHU216HW,2015-07-01 08:47:00,
2015-07-01 01:52:00,74.0,51.2,30.14,SE,135,0.0,0.0,45,0.00,,,0.00,WUHU216HW,2015-07-01 08:52:00,
2015-07-01 01:57:00,73.8,51.0,30.13,SE,135,0.0,0.9,45,0.00,,,0.00,WUHU216HW,2015-07-01 08:57:00,
2015-07-01 02:02:00,73.3,51.1,30.14,SE,135,0.0,0.9,46,0.00,,,0.00,WUHU216HW,2015-07-01 09:02:00,
2015-07-01 02:07:00,73.1,50.9,30.13,SE,135,0.0,0.0,46,0.00,,,0.00,WUHU216HW,2015-07-01 09:07:00,
2015-07-01 02:12:00,72.5,51.7,30.13,SE,135,0.0,0.0,48,0.00,,,0.00,WUHU216HW,2015-07-01 09:12:00,
2015-07-01 02:17:00,72.4,50.9,30.13,SE,135,0.0,0.0,47,0.00,,,0.00,WUHU216HW,2015-07-01 09:17:00,
2015-07-01 02:22:00,72.4,50.9,30.13,SE,135,0.0,0.0,47,0.00,,,0.00,WUHU216HW,2015-07-01 09:22:00,
2015-07-01 02:27:00,72.4,50.9,30.13,WNW,293,0.2,1.1,47,0.00,,,0.00,WUHU216HW,2015-07-01 09:27:00,
2015-07-01 02:32:00,72.2,50.8,30.13,West,270,0.0,1.1,47,0.00,,,0.00,WUHU216HW,2015-07-01 09:32:00,
2015-07-01 02:37:00,71.6,50.9,30.13,West,270,0.0,0.9,48,0.00,,,0.00,WUHU216HW,2015-07-01 09:37:00,
2015-07-01 02:42:00,71.5,51.3,30.14,West,270,0.0,0.2,49,0.00,,,0.00,WUHU216HW,2015-07-01 09:42:00,
2015-07-01 02:47:00,71.1,50.9,30.14,West,270,0.0,0.4,49,0.00,,,0.00,WUHU216HW,2015-07-01 09:47:00,
2015-07-01 02:52:00,70.9,50.8,30.14,West,270,0.0,0.4,49,0.00,,,0.00,WUHU216HW,2015-07-01 09:52:00,
2015-07-01 02:57:00,70.9,50.8,30.14,West,270,0.0,0.4,49,0.00,,,0.00,WUHU216HW,2015-07-01 09:57:00,
2015-07-01 03:02:00,70.7,50.6,30.14,WSW,248,0.0,0.4,49,0.00,,,0.00,WUHU216HW,2015-07-01 10:02:00,
2015-07-01 03:07:00,70.6,51.0,30.14,WSW,248,0.0,0.4,50,0.00,,,0.00,WUHU216HW,2015-07-01 10:07:00,
2015-07-01 03:12:00,70.2,50.8,30.13,SW,225,0.0,1.1,50,0.00,,,0.00,WUHU216HW,2015-07-01 10:12:00,
2015-07-01 03:17:00,70.0,50.6,30.13,SW,225,1.1,1.1,50,0.00,,,0.00,WUHU216HW,2015-07-01 10:17:00,
2015-07-01 03:22:00,70.0,50.6,30.13,SW,225,0.0,1.1,50,0.00,,,0.00,WUHU216HW,2015-07-01 10:22:00,
2015-07-01 03:27:00,69.8,50.4,30.13,SW,225,0.0,1.1,50,0.00,,,0.00,WUHU216HW,2015-07-01 10:27:00,
2015-07-01 03:32:00,69.5,50.0,30.14,SW,225,0.0,1.1,50,0.00,,,0.00,WUHU216HW,2015-07-01 10:32:00,
2015-07-01 03:37:00,69.3,49.3,30.14,SW,225,0.0,0.0,49,0.00,,,0.00,WUHU216HW,2015-07-01 10:37:00,
2015-07-01 03:42:00,69.3,49.3,30.13,SW,225,0.0,0.0,49,0.00,,,0.00,WUHU216HW,2015-07-01 10:42:00,
2015-07-01 03:47:00,69.3,49.3,30.13,SW,225,0.7,0.7,49,0.00,,,0.00,WUHU216HW,2015-07-01 10:47:00,
2015-07-01 03:52:00,69.3,49.3,30.13,SW,225,0.0,0.7,49,0.00,,,0.00,WUHU216HW,2015-07-01 10:52:00,
2015-07-01 03:57:00,69.1,49.1,30.13,SW,225,0.0,0.4,49,0.00,,,0.00,WUHU216HW,2015-07-01 10:57:00,
2015-07-01 04:02:00,69.1,49.1,30.13,WSW,248,0.0,0.4,49,0.00,,,0.00,WUHU216HW,2015-07-01 11:02:00,
2015-07-01 04:07:00,69.1,49.8,30.13,WSW,248,0.0,0.4,50,0.00,,,0.00,WUHU216HW,2015-07-01 11:07:00,
2015-07-01 04:12:00,69.1,49.1,30.13,WSW,248,0.4,0.4,49,0.00,,,0.00,WUHU216HW,2015-07-01 11:12:00,
2015-07-01 04:17:00,68.9,49.0,30.13,WSW,248,0.4,0.7,49,0.00,,,0.00,WUHU216HW,2015-07-01 11:17:00,
2015-07-01 04:22:00,68.9,49.0,30.13,WSW,248,1.1,1.6,49,0.00,,,0.00,WUHU216HW,2015-07-01 11:22:00,
2015-07-01 04:27:00,68.9,48.4,30.13,WSW,248,0.9,1.6,48,0.00,,,0.00,WUHU216HW,2015-07-01 11:27:00,
2015-07-01 04:32:00,69.1,48.6,30.13,WSW,248,1.1,1.8,48,0.00,,,0.00,WUHU216HW,2015-07-01 11:32:00,
2015-07-01 04:37:00,68.9,48.4,30.13,WSW,248,0.0,1.8,48,0.00,,,0.00,WUHU216HW,2015-07-01 11:37:00,
2015-07-01 04:42:00,68.9,48.4,30.13,WSW,248,0.0,0.4,48,0.00,,,0.00,WUHU216HW,2015-07-01 11:42:00,
2015-07-01 04:47:00,68.9,48.4,30.13,WSW,248,0.0,0.4,48,0.00,,,0.00,WUHU216HW,2015-07-01 11:47:00,
2015-07-01 04:52:00,68.9,48.4,30.13,WSW,248,0.4,0.4,48,0.00,,,0.00,WUHU216HW,2015-07-01 11:52:00,
2015-07-01 04:57:00,68.9,48.4,30.13,WSW,248,0.0,0.4,48,0.00,,,0.00,WUHU216HW,2015-07-01 11:57:00,
2015-07-01 05:02:00,68.8,48.9,30.13,WSW,248,0.0,0.9,49,0.00,,,0.00,WUHU216HW,2015-07-01 12:02:00,
2015-07-01 05:07:00,68.4,48.5,30.13,WSW,248,0.0,0.9,49,0.00,,,0.00,WUHU216HW,2015-07-01 12:07:00,
2015-07-01 05:12:00,68.4,48.5,30.13,WSW,248,0.0,0.0,49,0.00,,,0.00,WUHU216HW,2015-07-01 12:12:00,
2015-07-01 05:17:00,68.2,48.3,30.13,West,270,1.3,1.3,49,0.00,,,0.00,WUHU216HW,2015-07-01 12:17:00,
2015-07-01 05:22:00,68.2,48.3,30.13,West,270,1.1,1.3,49,0.00,,,0.00,WUHU216HW,2015-07-01 12:22:00,
2015-07-01 05:27:00,68.2,48.3,30.13,WSW,248,0.4,1.1,49,0.00,,,0.00,WUHU216HW,2015-07-01 12:27:00,
2015-07-01 05:32:00,68.2,48.3,30.13,WSW,248,0.0,1.1,49,0.00,,,0.00,WUHU216HW,2015-07-01 12:32:00,
2015-07-01 05:37:00,68.2,47.8,30.14,WSW,248,0.0,0.0,48,0.00,,,0.00,WUHU216HW,2015-07-01 12:37:00,
2015-07-01 05:42:00,68.2,47.8,30.14,WSW,248,0.0,0.0,48,0.00,,,0.00,WUHU216HW,2015-07-01 12:42:00,
2015-07-01 05:47:00,68.2,47.8,30.14,WSW,248,0.0,0.0,48,0.00,,,0.00,WUHU216HW,2015-07-01 12:47:00,
2015-07-01 05:52:00,68.0,47.6,30.14,WSW,248,0.0,0.0,48,0.00,,,0.00,WUHU216HW,2015-07-01 12:52:00,
2015-07-01 05:57:00,68.0,47.6,30.14,WSW,248,0.0,0.0,48,0.00,,,0.00,WUHU216HW,2015-07-01 12:57:00,
2015-07-01 06:02:00,68.0,47.6,30.14,WSW,248,0.0,0.0,48,0.00,,,0.00,WUHU216HW,2015-07-01 13:02:00,
2015-07-01 06:07:00,68.0,47.6,30.14,WSW,248,0.0,0.0,48,0.00,,,0.00,WUHU216HW,2015-07-01 13:07:00,
2015-07-01 06:12:00,67.9,48.1,30.14,WSW,248,0.0,0.0,49,0.00,,,0.00,WUHU216HW,2015-07-01 13:12:00,
2015-07-01 06:17:00,67.9,48.1,30.14,WSW,248,0.0,0.0,49,0.00,,,0.00,WUHU216HW,2015-07-01 13:17:00,
2015-07-01 06:22:00,67.7,47.9,30.14,WSW,248,0.0,0.0,49,0.00,,,0.00,WUHU216HW,2015-07-01 13:22:00,
2015-07-01 06:27:00,67.7,47.9,30.15,WSW,248,0.0,0.0,49,0.00,,,0.00,WUHU216HW,2015-07-01 13:27:00,
2015-07-01 06:32:00,67.7,47.9,30.14,WSW,248,0.0,0.0,49,0.00,,,0.00,WUHU216HW,2015-07-01 13:32:00,
2015-07-01 06:37:00,67.7,48.4,30.15,WSW,248,0.9,0.9,50,0.00,,,0.00,WUHU216HW,2015-07-01 13:37:00,
2015-07-01 06:42:00,67.7,49.0,30.15,SW,225,0.0,0.9,51,0.00,,,0.00,WUHU216HW,2015-07-01 13:42:00,
2015-07-01 06:47:00,67.7,48.4,30.15,West,270,1.1,1.1,50,0.00,,,0.00,WUHU216HW,2015-07-01 13:47:00,
2015-07-01 06:52:00,67.9,49.2,30.15,West,270,1.6,1.6,51,0.00,,,0.00,WUHU216HW,2015-07-01 13:52:00,
2015-07-01 06:57:00,68.0,49.2,30.16,WSW,248,1.8,1.8,51,0.00,,,0.00,WUHU216HW,2015-07-01 13:57:00,
2015-07-01 07:02:00,68.0,49.2,30.16,West,270,1.8,1.8,51,0.00,,,0.00,WUHU216HW,2015-07-01 14:02:00,
2015-07-01 07:07:00,68.2,49.4,30.16,WSW,248,1.8,2.9,51,0.00,,,0.00,WUHU216HW,2015-07-01 14:07:00,
2015-07-01 07:12:00,68.4,49.6,30.16,West,270,0.9,2.9,51,0.00,,,0.00,WUHU216HW,2015-07-01 14:12:00,
2015-07-01 07:17:00,68.8,50.0,30.16,West,270,1.8,1.8,51,0.00,,,0.00,WUHU216HW,2015-07-01 14:17:00,
2015-07-01 07:22:00,68.9,50.6,30.16,WSW,248,0.0,1.8,52,0.00,,,0.00,WUHU216HW,2015-07-01 14:22:00,
2015-07-01 07:27:00,69.1,51.2,30.15,West,270,0.7,1.1,53,0.00,,,0.00,WUHU216HW,2015-07-01 14:27:00,
2015-07-01 07:32:00,69.5,51.1,30.15,South,180,1.1,2.0,52,0.00,,,0.00,WUHU216HW,2015-07-01 14:32:00,
2015-07-01 07:37:00,69.7,50.8,30.16,West,270,1.6,2.0,51,0.00,,,0.00,WUHU216HW,2015-07-01 14:37:00,
2015-07-01 07:42:00,70.0,51.0,30.16,WSW,248,1.6,2.0,51,0.00,,,0.00,WUHU216HW,2015-07-01 14:42:00,
2015-07-01 07:52:00,70.4,51.4,30.16,WSW,248,1.8,1.8,51,0.00,,,0.00,WUHU216HW,2015-07-01 14:52:00,
2015-07-01 07:57:00,70.4,51.4,30.16,WSW,248,1.8,1.8,51,0.00,,,0.00,WUHU216HW,2015-07-01 14:57:00,
2015-07-01 08:02:00,71.1,50.9,30.16,West,270,2.0,2.0,49,0.00,,,0.00,WUHU216HW,2015-07-01 15:02:00,
2015-07-01 08:07:00,71.6,52.0,30.16,SSW,203,0.0,2.2,50,0.00,,,0.00,WUHU216HW,2015-07-01 15:07:00,
2015-07-01 08:12:00,71.8,52.2,30.16,WSW,248,1.1,2.2,50,0.00,,,0.00,WUHU216HW,2015-07-01 15:12:00,
2015-07-01 08:17:00,72.4,52.1,30.16,WSW,248,0.2,1.8,49,0.00,,,0.00,WUHU216HW,2015-07-01 15:17:00,
2015-07-01 08:22:00,72.9,52.6,30.16,West,270,2.5,2.5,49,0.00,,,0.00,WUHU216HW,2015-07-01 15:22:00,
2015-07-01 08:27:00,73.1,52.1,30.16,West,270,0.4,2.5,48,0.00,,,0.00,WUHU216HW,2015-07-01 15:27:00,
2015-07-01 08:32:00,73.4,51.8,30.16,West,270,0.9,1.8,47,0.00,,,0.00,WUHU216HW,2015-07-01 15:32:00,
2015-07-01 08:37:00,73.8,51.6,30.16,WSW,248,1.3,1.8,46,0.00,,,0.00,WUHU216HW,2015-07-01 15:37:00,
2015-07-01 08:42:00,74.0,51.2,30.16,West,270,1.6,2.5,45,0.00,,,0.00,WUHU216HW,2015-07-01 15:42:00,
2015-07-01 08:47:00,74.2,51.4,30.17,West,270,0.0,2.5,45,0.00,,,0.00,WUHU216HW,2015-07-01 15:47:00,
2015-07-01 08:52:00,74.5,51.7,30.17,West,270,0.0,0.7,45,0.00,,,0.00,WUHU216HW,2015-07-01 15:52:00,
2015-07-01 08:57:00,74.7,51.8,30.16,WSW,248,0.0,0.0,45,0.00,,,0.00,WUHU216HW,2015-07-01 15:57:00,
2015-07-01 09:02:00,74.9,52.7,30.16,ENE,68,0.0,1.1,46,0.00,,,0.00,WUHU216HW,2015-07-01 16:02:00,
2015-07-01 09:07:00,75.1,53.5,30.17,ENE,68,0.0,1.1,47,0.00,,,0.00,WUHU216HW,2015-07-01 16:07:00,
2015-07-01 09:12:00,75.2,53.0,30.16,ENE,68,0.0,0.0,46,0.00,,,0.00,WUHU216HW,2015-07-01 16:12:00,
2015-07-01 09:17:00,75.6,53.3,30.16,ENE,68,1.3,1.3,46,0.00,,,0.00,WUHU216HW,2015-07-01 16:17:00,
2015-07-01 09:22:00,76.0,53.0,30.16,ENE,68,0.7,1.3,45,0.00,,,0.00,WUHU216HW,2015-07-01 16:22:00,
2015-07-01 09:27:00,76.5,53.6,30.16,ENE,68,0.0,1.1,45,0.00,,,0.00,WUHU216HW,2015-07-01 16:27:00,
2015-07-01 09:32:00,77.0,53.4,30.16,East,90,0.0,0.2,44,0.00,,,0.00,WUHU216HW,2015-07-01 16:32:00,
2015-07-01 09:37:00,77.4,53.7,30.16,North,0,0.0,0.0,44,0.00,,,0.00,WUHU216HW,2015-07-01 16:37:00,
2015-07-01 09:42:00,77.9,54.2,30.16,North,0,0.0,0.0,44,0.00,,,0.00,WUHU216HW,2015-07-01 16:42:00,
2015-07-01 09:47:00,78.3,54.6,30.16,North,0,0.0,0.0,44,0.00,,,0.00,WUHU216HW,2015-07-01 16:47:00,
2015-07-01 09:52:00,78.7,54.8,30.16,North,0,0.0,0.0,44,0.00,,,0.00,WUHU216HW,2015-07-01 16:52:00,
2015-07-01 09:57:00,78.8,55.0,30.16,North,0,0.0,0.0,44,0.00,,,0.00,WUHU216HW,2015-07-01 16:57:00,
2015-07-01 10:02:00,79.2,55.4,30.15,North,0,0.0,0.0,44,0.00,,,0.00,WUHU216HW,2015-07-01 17:02:00,
2015-07-01 10:07:00,79.6,55.6,30.15,North,0,0.0,0.0,44,0.00,,,0.00,WUHU216HW,2015-07-01 17:07:00,
2015-07-01 10:12:00,79.6,55.1,30.16,North,0,0.0,0.0,43,0.00,,,0.00,WUHU216HW,2015-07-01 17:12:00,
2015-07-01 10:17:00,79.9,54.7,30.16,North,0,0.0,0.0,42,0.00,,,0.00,WUHU216HW,2015-07-01 17:17:00,
2015-07-01 10:22:00,80.1,54.3,30.16,North,0,0.0,0.0,41,0.00,,,0.00,WUHU216HW,2015-07-01 17:22:00,
2015-07-01 10:27:00,80.3,53.8,30.16,North,0,0.0,0.0,40,0.00,,,0.00,WUHU216HW,2015-07-01 17:27:00,
2015-07-01 10:32:00,80.8,54.4,30.15,North,0,0.0,0.0,40,0.00,,,0.00,WUHU216HW,2015-07-01 17:32:00,
2015-07-01 10:37:00,81.5,54.2,30.15,North,0,0.0,0.0,39,0.00,,,0.00,WUHU216HW,2015-07-01 17:37:00,
2015-07-01 10:42:00,82.1,54.7,30.16,North,0,0.0,0.0,39,0.00,,,0.00,WUHU216HW,2015-07-01 17:42:00,
2015-07-01 10:47:00,82.6,55.2,30.15,North,0,0.0,0.0,39,0.00,,,0.00,WUHU216HW,2015-07-01 17:47:00,
2015-07-01 10:52:00,83.2,54.1,30.16,East,90,0.0,3.8,37,0.00,,,0.00,WUHU216HW,2015-07-01 17:52:00,
2015-07-01 10:57:00,83.5,53.7,30.16,NE,45,0.7,3.8,36,0.00,,,0.00,WUHU216HW,2015-07-01 17:57:00,
2015-07-01 11:02:00,83.9,53.9,30.16,NE,45,0.4,1.8,36,0.00,,,0.00,WUHU216HW,2015-07-01 18:02:00,
2015-07-01 11:07:00,84.2,53.5,30.15,ENE,68,0.9,1.8,35,0.00,,,0.00,WUHU216HW,2015-07-01 18:07:00,
2015-07-01 11:12:00,84.6,53.0,30.15,ESE,113,1.1,1.8,34,0.00,,,0.00,WUHU216HW,2015-07-01 18:12:00,
2015-07-01 11:17:00,85.0,52.6,30.15,East,90,1.8,1.8,33,0.00,,,0.00,WUHU216HW,2015-07-01 18:17:00,
2015-07-01 11:22:00,85.0,50.9,30.15,SSW,203,1.1,1.8,31,0.00,,,0.00,WUHU216HW,2015-07-01 18:22:00,
2015-07-01 11:27:00,85.0,50.9,30.15,SSW,203,1.1,1.3,31,0.00,,,0.00,WUHU216HW,2015-07-01 18:27:00,
2015-07-01 11:49:00,87.5,52.3,30.15,ENE,68,1.1,1.1,30,0.00,,,0.00,WUHU216HW,2015-07-01 18:49:00,
2015-07-01 11:54:00,87.5,51.2,30.15,ENE,68,1.6,1.6,29,0.00,,,0.00,WUHU216HW,2015-07-01 18:54:00,
2015-07-01 11:59:00,87.7,51.4,30.15,WSW,248,1.1,1.6,29,0.00,,,0.00,WUHU216HW,2015-07-01 18:59:00,
2015-07-01 12:04:00,88.0,51.7,30.15,ENE,68,0.4,1.1,29,0.00,,,0.00,WUHU216HW,2015-07-01 19:04:00,
2015-07-01 12:09:00,88.4,52.0,30.15,East,90,1.1,2.2,29,0.00,,,0.00,WUHU216HW,2015-07-01 19:09:00,
2015-07-01 12:14:00,88.6,52.1,30.15,East,90,1.8,2.2,29,0.00,,,0.00,WUHU216HW,2015-07-01 19:14:00,
2015-07-01 12:19:00,89.3,51.7,30.15,West,270,1.1,1.8,28,0.00,,,0.00,WUHU216HW,2015-07-01 19:19:00,
2015-07-01 12:24:00,89.6,49.9,30.14,WSW,248,0.2,3.6,26,0.00,,,0.00,WUHU216HW,2015-07-01 19:24:00,
2015-07-01 12:29:00,89.5,49.7,30.14,SW,225,0.2,3.6,26,0.00,,,0.00,WUHU216HW,2015-07-01 19:29:00,
2015-07-01 12:34:00,90.0,51.2,30.14,SSE,158,0.9,2.0,27,0.00,,,0.00,WUHU216HW,2015-07-01 19:34:00,
2015-07-01 12:39:00,90.5,51.8,30.14,SSE,158,0.9,2.0,27,0.00,,,0.00,WUHU216HW,2015-07-01 19:39:00,
2015-07-01 12:44:00,91.1,50.1,30.14,East,90,2.5,2.5,25,0.00,,,0.00,WUHU216HW,2015-07-01 19:44:00,
2015-07-01 12:49:00,91.3,50.1,30.14,East,90,0.0,2.5,25,0.00,,,0.00,WUHU216HW,2015-07-01 19:49:00,
2015-07-01 12:54:00,91.3,50.1,30.14,East,90,0.0,0.0,25,0.00,,,0.00,WUHU216HW,2015-07-01 19:54:00,
2015-07-01 13:00:00,92.3,52.1,30.13,NE,45,1.6,1.6,26,0.00,,,0.00,WUHU216HW,2015-07-01 20:00:00,
2015-07-01 13:05:00,92.9,52.6,30.13,SE,135,0.9,2.5,26,0.00,,,0.00,WUHU216HW,2015-07-01 20:05:00,
2015-07-01 13:10:00,94.0,53.5,30.13,WSW,248,1.1,2.5,26,0.00,,,0.00,WUHU216HW,2015-07-01 20:10:00,
2015-07-01 13:15:00,94.9,54.3,30.13,SSW,203,2.9,2.9,26,0.00,,,0.00,WUHU216HW,2015-07-01 20:15:00,
2015-07-01 13:20:00,95.6,52.7,30.13,ENE,68,3.4,3.4,24,0.00,,,0.00,WUHU216HW,2015-07-01 20:20:00,
2015-07-01 13:25:00,95.2,51.2,30.13,ENE,68,1.3,3.4,23,0.00,,,0.00,WUHU216HW,2015-07-01 20:25:00,
2015-07-01 13:30:00,95.2,52.3,30.12,SW,225,1.1,2.9,24,0.00,,,0.00,WUHU216HW,2015-07-01 20:30:00,
2015-07-01 13:35:00,95.6,52.7,30.12,ENE,68,1.3,3.4,24,0.00,,,0.00,WUHU216HW,2015-07-01 20:35:00,
2015-07-01 13:40:00,95.9,51.9,30.12,NE,45,2.5,3.4,23,0.00,,,0.00,WUHU216HW,2015-07-01 20:40:00,
2015-07-01 13:45:00,95.9,51.9,30.12,NE,45,2.7,3.4,23,0.00,,,0.00,WUHU216HW,2015-07-01 20:45:00,
2015-07-01 13:50:00,95.9,52.9,30.12,NE,45,4.0,4.0,24,0.00,,,0.00,WUHU216HW,2015-07-01 20:50:00,
2015-07-01 13:55:00,96.3,53.3,30.11,SSW,203,1.6,4.0,24,0.00,,,0.00,WUHU216HW,2015-07-01 20:55:00,
2015-07-01 14:00:00,97.0,52.7,30.11,West,270,4.5,4.5,23,0.00,,,0.00,WUHU216HW,2015-07-01 21:00:00,
2015-07-01 14:05:00,97.6,54.4,30.11,SW,225,1.8,4.5,24,0.00,,,0.00,WUHU216HW,2015-07-01 21:05:00,
2015-07-01 14:10:00,98.3,52.8,30.11,West,270,1.3,2.7,22,0.00,,,0.00,WUHU216HW,2015-07-01 21:10:00,
2015-07-01 14:15:00,98.6,53.0,30.11,West,270,1.8,4.7,22,0.00,,,0.00,WUHU216HW,2015-07-01 21:15:00,
2015-07-01 14:20:00,99.9,54.0,30.11,ENE,68,0.2,4.7,22,0.00,,,0.00,WUHU216HW,2015-07-01 21:20:00,
2015-07-01 14:25:00,99.4,53.6,30.11,SSE,158,1.1,2.5,22,0.00,,,0.00,WUHU216HW,2015-07-01 21:25:00,
2015-07-01 14:30:00,98.8,53.1,30.11,East,90,2.9,3.8,22,0.00,,,0.00,WUHU216HW,2015-07-01 21:30:00,
2015-07-01 14:35:00,99.2,54.5,30.11,West,270,1.8,3.8,23,0.00,,,0.00,WUHU216HW,2015-07-01 21:35:00,
2015-07-01 14:40:00,100.1,51.9,30.10,West,270,1.3,2.2,20,0.00,,,0.00,WUHU216HW,2015-07-01 21:40:00,
2015-07-01 14:45:00,100.1,54.2,30.10,SW,225,2.9,3.8,22,0.00,,,0.00,WUHU216HW,2015-07-01 21:45:00,
2015-07-01 14:50:00,99.0,51.0,30.10,South,180,2.0,5.6,20,0.00,,,0.00,WUHU216HW,2015-07-01 21:50:00,
2015-07-01 14:55:00,97.9,52.4,30.10,WSW,248,4.0,5.6,22,0.00,,,0.00,WUHU216HW,2015-07-01 21:55:00,
2015-07-01 15:00:00,98.3,52.8,30.10,NNE,23,4.0,4.5,22,0.00,,,0.00,WUHU216HW,2015-07-01 22:00:00,
2015-07-01 15:05:00,98.8,53.1,30.10,North,0,4.0,4.5,22,0.00,,,0.00,WUHU216HW,2015-07-01 22:05:00,
2015-07-01 15:10:00,99.4,53.6,30.09,NW,315,0.2,4.0,22,0.00,,,0.00,WUHU216HW,2015-07-01 22:10:00,
2015-07-01 15:15:00,99.4,53.6,30.10,SSE,158,1.8,4.7,22,0.00,,,0.00,WUHU216HW,2015-07-01 22:15:00,
2015-07-01 15:20:00,99.4,53.6,30.09,West,270,0.7,4.7,22,0.00,,,0.00,WUHU216HW,2015-07-01 22:20:00,
2015-07-01 15:25:00,99.2,53.5,30.09,WSW,248,5.6,5.6,22,0.00,,,0.00,WUHU216HW,2015-07-01 22:25:00,
2015-07-01 15:30:00,98.5,55.1,30.09,West,270,8.1,8.1,24,0.00,,,0.00,WUHU216HW,2015-07-01 22:30:00,
2015-07-01 15:35:00,98.5,55.1,30.09,West,270,3.4,8.1,24,0.00,,,0.00,WUHU216HW,2015-07-01 22:35:00,
2015-07-01 15:40:00,98.8,56.5,30.09,SE,135,1.8,6.3,25,0.00,,,0.00,WUHU216HW,2015-07-01 22:40:00,
2015-07-01 15:45:00,98.3,56.1,30.09,SW,225,3.6,4.0,25,0.00,,,0.00,WUHU216HW,2015-07-01 22:45:00,
2015-07-01 15:50:00,97.6,55.5,30.09,ESE,113,1.3,5.6,25,0.00,,,0.00,WUHU216HW,2015-07-01 22:50:00,
2015-07-01 15:55:00,96.8,55.9,30.09,West,270,2.7,5.6,26,0.00,,,0.00,WUHU216HW,2015-07-01 22:55:00,
2015-07-01 16:00:00,96.5,56.7,30.09,WSW,248,2.7,3.6,27,0.00,,,0.00,WUHU216HW,2015-07-01 23:00:00,
2015-07-01 16:05:00,96.5,56.7,30.09,SSW,203,4.7,4.7,27,0.00,,,0.00,WUHU216HW,2015-07-01 23:05:00,
2015-07-01 16:10:00,96.8,57.0,30.09,WSW,248,0.9,4.7,27,0.00,,,0.00,WUHU216HW,2015-07-01 23:10:00,
2015-07-01 16:15:00,97.4,56.3,30.09,WNW,293,2.0,4.5,26,0.00,,,0.00,WUHU216HW,2015-07-01 23:15:00,
2015-07-01 16:20:00,97.7,56.7,30.09,North,0,3.4,4.5,26,0.00,,,0.00,WUHU216HW,2015-07-01 23:20:00,
2015-07-01 16:25:00,97.7,56.7,30.09,North,0,3.4,3.4,26,0.00,,,0.00,WUHU216HW,2015-07-01 23:25:00,
2015-07-01 16:50:00,98.1,55.9,30.09,North,0,3.6,3.6,25,0.00,,,0.00,WUHU216HW,2015-07-01 23:50:00,
2015-07-01 16:55:00,96.8,55.9,30.09,WSW,248,2.5,3.6,26,0.00,,,0.00,WUHU216HW,2015-07-01 23:55:00,
2015-07-01 17:00:00,96.1,55.3,30.09,West,270,1.8,3.4,26,0.00,,,0.00,WUHU216HW,2015-07-02 00:00:00,
2015-07-01 17:05:00,95.9,55.2,30.09,SW,225,1.8,3.1,26,0.00,,,0.00,WUHU216HW,2015-07-02 00:05:00,
2015-07-01 17:10:00,95.4,54.7,30.09,ESE,113,2.5,3.1,26,0.00,,,0.00,WUHU216HW,2015-07-02 00:10:00,
2015-07-01 17:15:00,94.9,55.4,30.09,WSW,248,6.7,6.7,27,0.00,,,0.00,WUHU216HW,2015-07-02 00:15:00,
2015-07-01 17:20:00,94.3,54.9,30.09,West,270,5.4,8.1,27,0.00,,,0.00,WUHU216HW,2015-07-02 00:20:00,
2015-07-01 17:25:00,93.6,54.3,30.10,WSW,248,4.0,8.1,27,0.00,,,0.00,WUHU216HW,2015-07-02 00:25:00,
2015-07-01 17:30:00,93.2,56.2,30.10,WSW,248,5.4,5.4,29,0.00,,,0.00,WUHU216HW,2015-07-02 00:30:00,
2015-07-01 17:35:00,92.9,55.9,30.09,NW,315,6.0,6.3,29,0.00,,,0.00,WUHU216HW,2015-07-02 00:35:00,
2015-07-01 17:40:00,92.5,55.5,30.10,NW,315,0.9,6.3,29,0.00,,,0.00,WUHU216HW,2015-07-02 00:40:00,
2015-07-01 17:45:00,92.2,55.3,30.10,West,270,4.3,6.0,29,0.00,,,0.00,WUHU216HW,2015-07-02 00:45:00,
2015-07-01 17:50:00,91.8,55.0,30.09,SSW,203,0.7,8.1,29,0.00,,,0.00,WUHU216HW,2015-07-02 00:50:00,
2015-07-01 17:55:00,91.6,54.8,30.09,WSW,248,3.4,8.1,29,0.00,,,0.00,WUHU216HW,2015-07-02 00:55:00,
2015-07-01 18:00:00,91.4,54.7,30.09,WSW,248,3.1,6.3,29,0.00,,,0.00,WUHU216HW,2015-07-02 01:00:00,
2015-07-01 18:05:00,91.1,54.4,30.09,WSW,248,2.9,6.3,29,0.00,,,0.00,WUHU216HW,2015-07-02 01:05:00,
2015-07-01 18:10:00,90.7,54.1,30.09,SW,225,3.6,6.0,29,0.00,,,0.00,WUHU216HW,2015-07-02 01:10:00,
2015-07-01 18:15:00,90.5,53.9,30.09,ENE,68,1.3,4.3,29,0.00,,,0.00,WUHU216HW,2015-07-02 01:15:00,
2015-07-01 18:20:00,90.5,53.9,30.09,West,270,2.0,5.4,29,0.00,,,0.00,WUHU216HW,2015-07-02 01:20:00,
2015-07-01 18:25:00,90.4,53.7,30.10,SSW,203,2.2,5.4,29,0.00,,,0.00,WUHU216HW,2015-07-02 01:25:00,
2015-07-01 18:30:00,90.2,53.6,30.10,WSW,248,1.1,4.3,29,0.00,,,0.00,WUHU216HW,2015-07-02 01:30:00,
2015-07-01 18:35:00,90.0,53.5,30.10,WSW,248,1.1,3.1,29,0.00,,,0.00,WUHU216HW,2015-07-02 01:35:00,
2015-07-01 18:40:00,89.6,52.0,30.10,WSW,248,2.2,6.0,28,0.00,,,0.00,WUHU216HW,2015-07-02 01:40:00,
2015-07-01 18:45:00,89.6,52.0,30.10,WSW,248,1.1,3.1,28,0.00,,,0.00,WUHU216HW,2015-07-02 01:45:00,
2015-07-01 18:50:00,89.3,51.7,30.10,SW,225,1.1,4.3,28,0.00,,,0.00,WUHU216HW,2015-07-02 01:50:00,
2015-07-01 18:55:00,89.1,52.7,30.10,WSW,248,7.2,7.2,29,0.00,,,0.00,WUHU216HW,2015-07-02 01:55:00,
2015-07-01 19:00:00,88.7,51.2,30.10,SSW,203,1.8,7.2,28,0.00,,,0.00,WUHU216HW,2015-07-02 02:00:00,
2015-07-01 19:05:00,88.6,51.0,30.10,SE,135,1.8,6.9,28,0.00,,,0.00,WUHU216HW,2015-07-02 02:05:00,
2015-07-01 19:10:00,88.4,51.0,30.09,WNW,293,3.1,5.1,28,0.00,,,0.00,WUHU216HW,2015-07-02 02:10:00,
2015-07-01 19:15:00,88.2,50.8,30.10,WSW,248,1.6,5.1,28,0.00,,,0.00,WUHU216HW,2015-07-02 02:15:00,
2015-07-01 19:20:00,88.0,50.6,30.10,SW,225,4.7,6.9,28,0.00,,,0.00,WUHU216HW,2015-07-02 02:20:00,
2015-07-01 19:25:00,87.7,50.3,30.10,ESE,113,0.9,6.9,28,0.00,,,0.00,WUHU216HW,2015-07-02 02:25:00,
2015-07-01 19:30:00,87.5,50.1,30.10,SW,225,0.0,4.7,28,0.00,,,0.00,WUHU216HW,2015-07-02 02:30:00,
2015-07-01 19:35:00,87.5,50.1,30.10,SSW,203,2.2,4.0,28,0.00,,,0.00,WUHU216HW,2015-07-02 02:35:00,
2015-07-01 19:40:00,87.3,51.0,30.11,ESE,113,1.8,4.0,29,0.00,,,0.00,WUHU216HW,2015-07-02 02:40:00,
2015-07-01 19:45:00,87.1,51.0,30.11,West,270,1.6,4.0,29,0.00,,,0.00,WUHU216HW,2015-07-02 02:45:00,
2015-07-01 19:50:00,86.9,50.8,30.11,WSW,248,3.1,3.1,29,0.00,,,0.00,WUHU216HW,2015-07-02 02:50:00,
2015-07-01 19:55:00,86.8,50.6,30.11,NW,315,0.7,4.7,29,0.00,,,0.00,WUHU216HW,2015-07-02 02:55:00,
2015-07-01 20:00:00,86.8,50.6,30.10,NW,315,2.5,4.7,29,0.00,,,0.00,WUHU216HW,2015-07-02 03:00:00,
2015-07-01 20:05:00,86.8,50.6,30.11,NNW,338,0.9,3.1,29,0.00,,,0.00,WUHU216HW,2015-07-02 03:05:00,
2015-07-01 20:10:00,86.8,50.6,30.11,West,270,4.7,4.7,29,0.00,,,0.00,WUHU216HW,2015-07-02 03:10:00,
2015-07-01 20:15:00,86.8,49.6,30.11,West,270,2.7,4.7,28,0.00,,,0.00,WUHU216HW,2015-07-02 03:15:00,
2015-07-01 20:20:00,86.6,50.5,30.11,ENE,68,0.9,3.8,29,0.00,,,0.00,WUHU216HW,2015-07-02 03:20:00,
2015-07-01 20:25:00,86.4,50.3,30.11,WSW,248,0.0,3.4,29,0.00,,,0.00,WUHU216HW,2015-07-02 03:25:00,
2015-07-01 20:30:00,86.2,51.3,30.11,WSW,248,2.2,3.4,30,0.00,,,0.00,WUHU216HW,2015-07-02 03:30:00,
2015-07-01 20:35:00,86.0,51.1,30.11,SW,225,0.7,2.7,30,0.00,,,0.00,WUHU216HW,2015-07-02 03:35:00,
2015-07-01 20:40:00,85.9,49.9,30.11,NNE,23,0.2,2.7,29,0.00,,,0.00,WUHU216HW,2015-07-02 03:40:00,
2015-07-01 20:45:00,85.7,50.8,30.11,SSW,203,0.4,1.1,30,0.00,,,0.00,WUHU216HW,2015-07-02 03:45:00,
2015-07-01 20:50:00,85.5,50.7,30.11,SSE,158,2.5,2.5,30,0.00,,,0.00,WUHU216HW,2015-07-02 03:50:00,
2015-07-01 20:55:00,85.3,50.5,30.11,NW,315,2.0,3.8,30,0.00,,,0.00,WUHU216HW,2015-07-02 03:55:00,
2015-07-01 21:00:00,85.3,50.5,30.11,South,180,2.2,3.8,30,0.00,,,0.00,WUHU216HW,2015-07-02 04:00:00,
2015-07-01 21:05:00,85.1,49.2,30.11,South,180,1.6,2.2,29,0.00,,,0.00,WUHU216HW,2015-07-02 04:05:00,
2015-07-01 21:10:00,85.1,49.2,30.12,ESE,113,1.1,2.2,29,0.00,,,0.00,WUHU216HW,2015-07-02 04:10:00,
2015-07-01 21:15:00,84.8,49.0,30.12,West,270,0.7,1.1,29,0.00,,,0.00,WUHU216HW,2015-07-02 04:15:00,
2015-07-01 21:20:00,84.8,47.9,30.12,SW,225,1.1,1.1,28,0.00,,,0.00,WUHU216HW,2015-07-02 04:20:00,
2015-07-01 21:25:00,84.8,47.9,30.12,SW,225,1.1,1.1,28,0.00,,,0.00,WUHU216HW,2015-07-02 04:25:00,
2015-07-01 21:46:00,84.2,45.3,30.13,West,270,1.1,1.1,26,0.00,,,0.00,WUHU216HW,2015-07-02 04:46:00,
2015-07-01 21:51:00,84.2,45.3,30.13,WNW,293,1.8,1.8,26,0.00,,,0.00,WUHU216HW,2015-07-02 04:51:00,
2015-07-01 21:56:00,84.2,45.3,30.14,ESE,113,0.9,1.8,26,0.00,,,0.00,WUHU216HW,2015-07-02 04:56:00,
2015-07-01 22:01:00,84.1,45.1,30.14,WSW,248,2.0,2.0,26,0.00,,,0.00,WUHU216HW,2015-07-02 05:01:00,
2015-07-01 22:06:00,83.9,44.9,30.14,South,180,0.0,2.0,26,0.00,,,0.00,WUHU216HW,2015-07-02 05:06:00,
2015-07-01 22:11:00,83.7,44.8,30.14,NE,45,0.4,2.0,26,0.00,,,0.00,WUHU216HW,2015-07-02 05:11:00,
2015-07-01 22:16:00,83.5,44.7,30.14,NW,315,1.1,2.0,26,0.00,,,0.00,WUHU216HW,2015-07-02 05:16:00,
2015-07-01 22:21:00,83.5,44.7,30.14,WNW,293,1.3,1.3,26,0.00,,,0.00,WUHU216HW,2015-07-02 05:21:00,
2015-07-01 22:26:00,83.2,44.3,30.14,WSW,248,1.6,1.6,26,0.00,,,0.00,WUHU216HW,2015-07-02 05:26:00,
2015-07-01 22:31:00,83.0,45.2,30.14,SSE,158,0.4,1.6,27,0.00,,,0.00,WUHU216HW,2015-07-02 05:31:00,
2015-07-01 22:36:00,82.8,44.0,30.14,West,270,0.2,0.7,26,0.00,,,0.00,WUHU216HW,2015-07-02 05:36:00,
2015-07-01 22:41:00,82.8,46.1,30.14,WNW,293,0.0,0.7,28,0.00,,,0.00,WUHU216HW,2015-07-02 05:41:00,
2015-07-01 22:46:00,82.4,45.8,30.14,WNW,293,0.0,0.0,28,0.00,,,0.00,WUHU216HW,2015-07-02 05:46:00,
2015-07-01 22:51:00,82.1,45.6,30.15,West,270,0.0,0.0,28,0.00,,,0.00,WUHU216HW,2015-07-02 05:51:00,
2015-07-01 22:56:00,81.7,45.2,30.14,WNW,293,0.4,0.9,28,0.00,,,0.00,WUHU216HW,2015-07-02 05:56:00,
2015-07-01 23:01:00,81.7,45.2,30.14,West,270,0.0,0.9,28,0.00,,,0.00,WUHU216HW,2015-07-02 06:01:00,
2015-07-01 23:06:00,81.4,46.0,30.14,South,180,0.4,0.4,29,0.00,,,0.00,WUHU216HW,2015-07-02 06:06:00,
2015-07-01 23:11:00,81.2,45.8,30.14,SE,135,0.0,0.4,29,0.00,,,0.00,WUHU216HW,2015-07-02 06:11:00,
2015-07-01 23:16:00,81.0,45.7,30.14,SE,135,0.0,0.4,29,0.00,,,0.00,WUHU216HW,2015-07-02 06:16:00,
2015-07-01 23:21:00,80.8,45.5,30.14,SE,135,0.0,0.4,29,0.00,,,0.00,WUHU216HW,2015-07-02 06:21:00,
2015-07-01 23:26:00,80.5,46.3,30.14,SE,135,0.0,0.4,30,0.00,,,0.00,WUHU216HW,2015-07-02 06:26:00,
2015-07-01 23:31:00,80.3,46.1,30.14,SE,135,0.2,0.4,30,0.00,,,0.00,WUHU216HW,2015-07-02 06:31:00,
2015-07-01 23:36:00,80.3,46.1,30.14,West,270,1.1,1.1,30,0.00,,,0.00,WUHU216HW,2015-07-02 06:36:00,